COSMOS 894 DEB, 45506

Orbit data source: Space-Track

COSMOS 894 DEB, 45506 is space debris in LEO originally from a launch on Mon, 21 Feb 1977 UTC launched from the Plesetsk Missile And Space Complex (PKMTR). Debris objects in space refer to the collection of defunct objects orbiting the Earth. Examples of debris include non-operational satellites, rocket bodies, and fragments generated from explosions, collisions, or faulty payload assembly.

Loading next visibility...
Identifier
45506, 1977-013C
Orbit
LEO
Last TLE update
2 days ago
Origin
Manufacturer
Unknown
Mission
Spacecraft
Bus & Motor
Unknown
Mass
Unknown
Launch date (UTC)
1977-02-21 (48 years ago)
Launch vehicle
Unknown
Launch site
Plesetsk Missile And Space Complex (PKMTR)
Object type
Payload
Rocket body
Debris
Shape & HBR
Unknown
Radar Cross Section
Small (<0.1 m²)

Expand to show TLE details & history

TLE from 2 days ago
0 COSMOS 894 DEB
1 45506U 77013C   25113.77333418  .00001234  00000-0  11948-2 0  9991
2 45506  82.9444  37.1717 0026234 264.4624  95.3542 13.78835600555198
Epoch: 2025-04-23T18:33Z
Definitive object data (Epoch: 2025-04-23T18:33:36.073Z)
Latitude
-0°
Longitude
-93.28291°
Altitude
972.773 km
Speed
7.364 km/s
True Right ascension
02h 28m 41s
True Declination
0° 00' 00"
Sunlit
Object was in daylight at TLE epoch
Visualization TLE readout
Latitude
-43.1244°
Longitude
91.95336°
Altitude
968.954 km
Speed
7.374 km/s
Apparent Right ascension
12h 44m 36s
Apparent Declination
-46° 27' 39"
Sunlit
Object is in full shadow
Visualization observer readout
Local Sidereal Time
22:25:57
Azimuth
243.841° WSW
Elevation
-64.12°
Doppler factor
1
Orbital elements
Apogee altitude
984.427 km
Perigee altitude
945.899 km
Semi-major axis
7,343.3 km
Eccentricity
0.0026234
Inclination
82.9444°
RAAN
37.1717°
Arg. of periapsis
264.4624°
True anomaly
95.65341°
Mean anomaly
95.3542°
Eccentric anomaly
95.50382°
Mean motion
3.4491 °/min
BSTAR
0.0011948
Orbital period
104.37 mins
Loading maneuver chart data...
Loading SW <> Apogee altitude chart data...
Loading historical data...
Loading historical data...
Loading historical data...
Loading historical data...
Loading historical data...
Loading historical data...
Loading historical data...
Other satellites on launch #13 in the year 1977 (1977-02-21 UTC)

COSMOS 894 DEB Visibility forecast

Observer location: undefined°, undefined°

Span
Click to sort rows by Start time (UTC) header in descending order
Start Az.
Max El. time (UTC)
Max El. Az.
Max El.
End time (UTC)
End Az.
4 mins2025-04-25 17:44:53.217Z98.488° ESE2025-04-25 17:46:53.217Z79.218° E11.946°2025-04-25 17:48:53.217Z59.925° ENE
10 mins2025-04-25 19:26:53.217Z185.942° SSW2025-04-25 19:30:53.217Z193.41° SSW44.797°2025-04-25 19:36:53.217Z6.828° NNE
4 mins2025-04-25 21:15:53.217Z280.902° WNW2025-04-25 21:16:53.217Z290.895° WNW12.556°2025-04-25 21:19:53.217Z320.026° NNW
11 mins2025-04-26 06:21:53.217Z358.673° N2025-04-26 06:26:53.217Z71.209° E43.533°2025-04-26 06:32:53.217Z166.032° S
5 mins2025-04-26 08:09:53.217Z296.292° NW2025-04-26 08:11:53.217Z274.288° WNW15.193°2025-04-26 08:14:53.217Z244.812° WSW
|